Regional Weather Roundup
Issued by NWS

Home | Current Version | Previous Version | Graphics & Text | Print | Product List | Glossary Off
Versions: 1 2 3 4 5 6 7 8 9 10 11 12 13 14 15 16 17 18 19 20 21 22 23 24 25 26 27 28 29 30 31 32 33 34 35 36 37 38 39 40 41 42 43 44 45 46 47 48 49 50

000
ASUS43 KTOP 091808
RWRKS

WEATHER ROUNDUP FOR KANSAS
NATIONAL WEATHER SERVICE GOODLAND KS
1200 PM CST TUE FEB 09 2016

NOTE:  "FAIR" INDICATES FEW OR NO CLOUDS BELOW 12,000 FEET WITH NO
SIGNIFICANT WEATHER AND/OR OBSTRUCTIONS TO VISIBILITY.

KSZ001>006-013>018-027>032-041>047-091900-
NORTHWEST KANSAS

CITY           SKY/WX    TMP DP  RH WIND       PRES   REMARKS
GOODLAND       SUNNY     41  27  57 N9        30.29S
6HR MIN TEMP:  20; 6HR MAX TEMP:  41;

HAYS           CLOUDY    39  18  41 N17G23    30.32R WCI  30
HILL CITY      CLOUDY    37  20  50 N10       30.33R WCI  30
6HR MIN TEMP:  25; 6HR MAX TEMP:  37;

RUSSELL        CLOUDY    35  19  52 N20       30.31R WCI  24
6HR MIN TEMP:  30; 6HR MAX TEMP:  35;

$$

KSZ061>065-074>080-084>089-091900-
SOUTHWEST KANSAS

CITY           SKY/WX    TMP DP  RH WIND       PRES   REMARKS
DODGE CITY     SUNNY     43  17  35 N15G24    30.30S
6HR MIN TEMP:  26; 6HR MAX TEMP:  43;

ELKHART          N/A     58  24  27 NW17        N/A
GARDEN CITY    SUNNY     45  20  36 N12G22    30.31R
6HR MIN TEMP:  23; 6HR MAX TEMP:  46;

GREAT BEND     CLOUDY    39  16  38 N20       30.31S WCI  30
LIBERAL        SUNNY     55  28  35 N21       30.30S
PRATT          CLOUDY    37  17  44 N16       30.30S WCI  28
6HR MIN TEMP:  24; 6HR MAX TEMP:  37;

$$

KSZ066>073-081>083-090>101-091900-
SOUTHEAST KANSAS

CITY           SKY/WX    TMP DP  RH WIND       PRES   REMARKS
CHANUTE        SUNNY     35   2  24 N25G35    30.24R WCI  23
6HR MIN TEMP:  29; 6HR MAX TEMP:  36;

COFFEYVILLE    SUNNY     39   6  25 NW24      30.25R WCI  28
6HR MIN TEMP:  29; 6HR MAX TEMP:  40;

HUTCHINSON     CLOUDY    37  17  44 N17G26    30.30S WCI  27
6HR MIN TEMP:  30; 6HR MAX TEMP:  37;

MEDICINE LODGE   N/A     43  20  39 N13G21    30.30S
NEWTON         SUNNY     36  12  38 N20G30    30.28S WCI  25
PARSONS        SUNNY     38   4  24 NW23G35   30.24R WCI  27
6HR MIN TEMP:  28; 6HR MAX TEMP:  39;

WICHITA INTL   PTSUNNY   38  14  37 N20G30    30.28F WCI  28
6HR MIN TEMP:  32; 6HR MAX TEMP:  38;

WICHITA JABRA  MOSUNNY   39  14  36 N25G33    30.27S WCI  28
6HR MIN TEMP:  27; 6HR MAX TEMP:  39;

WICHITA MCCONL SUNNY     38  15  39 N22       30.27F WCI  27
WINFIELD       PTSUNNY   41  17  38 NW21G29   30.29S
6HR MIN TEMP:  25; 6HR MAX TEMP:  41;

$$

KSZ007>012-019>026-033>040-048>060-102>105-091900-
NORTHEAST KANSAS

CITY           SKY/WX    TMP DP  RH WIND       PRES   REMARKS
CONCORDIA      SUNNY     29   9  43 N24G35    30.32R WCI  15
6HR MIN TEMP:  24; 6HR MAX TEMP:  30;

EMPORIA        SUNNY     33   5  30 NW24G32   30.23S WCI  20
6HR MIN TEMP:  26; 6HR MAX TEMP:  33;

LAWRENCE       SUNNY     29   6  38 NW30G37   30.23S WCI  13
6HR MIN TEMP:  21; 6HR MAX TEMP:  30;

MANHATTAN      SUNNY     31   4  31 N16G25    30.30R WCI  20
6HR MIN TEMP:  25; 6HR MAX TEMP:  32;

MARYSVILLE     SUNNY     27   9  46 N22G32    30.28R WCI  12
OLATHE IND     SUNNY     28  10  46 NW21G29   30.21R WCI  15
6HR MIN TEMP:  19; 6HR MAX TEMP:  28;

OLATHE EXE     SUNNY     25   8  48 N15G30    30.20R WCI  13
6HR MIN TEMP:  19; 6HR MAX TEMP:  26;

SALINA         SUNNY     37  11  34 N24       30.32R WCI  26
6HR MIN TEMP:  30; 6HR MAX TEMP:  37;

TOPEKA BILLARD SUNNY     30   2  30 NW24G36   30.25S WCI  16
6HR MIN TEMP:  24; 6HR MAX TEMP:  30;

TOPEKA FORBES  SUNNY     32   3  29 NW25G36   30.23R WCI  19
6HR MIN TEMP:  25; 6HR MAX TEMP:  32;

$$



USA.gov is the U.S. government's official web portal to all federal, state and local government web resources and services.